timestamp,wind_dir_avg,wind_spd_avg,wind_spd_max_dir,wind_spd_gust,battery_voltage,lat,long
2023-04-04 00:04:00+00:00,267.0,7.59,271.0,9.15,12.41,47.59359,-54.27349
2023-04-04 00:14:00+00:00,278.0,8.48,282.0,10.47,12.25,47.59359,-54.27349
2023-04-04 00:24:00+00:00,281.0,8.93,280.0,10.37,12.25,47.59359,-54.27349
2023-04-04 00:34:00+00:00,277.0,8.97,280.0,10.07,12.25,47.59359,-54.27349
2023-04-04 00:44:00+00:00,292.0,6.65,285.0,9.48,12.25,47.59359,-54.27349
2023-04-04 00:54:00+00:00,294.0,5.02,285.0,6.73,12.25,47.59359,-54.27349
2023-04-04 01:04:00+00:00,296.0,8.89,298.0,11.19,12.25,47.59359,-54.27349
2023-04-04 01:14:00+00:00,296.0,9.29,294.0,11.01,12.25,47.59359,-54.27349
2023-04-04 01:24:00+00:00,292.0,9.43,302.0,10.89,12.25,47.59359,-54.27349
2023-04-04 01:34:00+00:00,288.0,8.69,287.0,10.5,12.25,47.59359,-54.27349
2023-04-04 01:44:00+00:00,292.0,6.77,288.0,10.13,12.25,47.59359,-54.27349
2023-04-04 01:54:00+00:00,288.0,9.61,285.0,10.5,12.25,47.59359,-54.27349
2023-04-04 02:04:00+00:00,283.0,8.14,283.0,10.33,12.25,47.59359,-54.27349
2023-04-04 02:14:00+00:00,283.0,8.88,283.0,10.28,12.17,47.59359,-54.27349
2023-04-04 02:24:00+00:00,279.0,9.5,281.0,10.54,12.17,47.59359,-54.27349
2023-04-04 02:34:00+00:00,281.0,9.05,283.0,10.07,12.17,47.59359,-54.27349
2023-04-04 02:44:00+00:00,280.0,9.66,283.0,10.39,12.17,47.59359,-54.27349
2023-04-04 02:54:00+00:00,279.0,8.89,282.0,10.6,12.17,47.59359,-54.27349
2023-04-04 03:04:00+00:00,271.0,8.32,264.0,10.48,12.17,47.59359,-54.27349
2023-04-04 03:14:01+00:00,272.0,10.06,272.0,11.23,12.17,47.59359,-54.27349
2023-04-04 03:24:01+00:00,277.0,7.96,276.0,8.91,12.17,47.59359,-54.27349
2023-04-04 03:34:01+00:00,271.0,7.96,274.0,9.45,12.17,47.59359,-54.27349
2023-04-04 03:44:01+00:00,269.0,8.31,272.0,9.51,12.17,47.59359,-54.27349
2023-04-04 03:54:01+00:00,274.0,7.72,278.0,9.21,12.17,47.59359,-54.27349
2023-04-04 04:04:01+00:00,274.0,7.27,272.0,8.34,12.17,47.59359,-54.27349
2023-04-04 04:14:00+00:00,268.0,7.02,277.0,7.64,12.17,47.59359,-54.27349
2023-04-04 04:24:00+00:00,264.0,5.01,260.0,5.81,12.17,47.59359,-54.27349
2023-04-04 04:34:00+00:00,252.0,7.22,252.0,8.61,12.17,47.59359,-54.27349
2023-04-04 04:44:00+00:00,246.0,7.6,242.0,9.46,12.17,47.59359,-54.27349
2023-04-04 04:54:00+00:00,255.0,8.45,255.0,9.7,12.17,47.59359,-54.27349
2023-04-04 05:04:00+00:00,252.0,9.63,253.0,10.64,12.17,47.59359,-54.27349
2023-04-04 05:14:00+00:00,252.0,9.28,252.0,10.78,12.17,47.59359,-54.27349
2023-04-04 05:24:00+00:00,259.0,9.33,261.0,10.67,12.17,47.59359,-54.27349
2023-04-04 05:34:00+00:00,260.0,8.87,259.0,10.17,12.17,47.59359,-54.27349
2023-04-04 05:44:00+00:00,256.0,8.31,255.0,10.0,12.17,47.59359,-54.27349
2023-04-04 05:54:00+00:00,264.0,7.97,267.0,8.95,12.17,47.59359,-54.27349
2023-04-04 06:04:00+00:00,264.0,8.05,264.0,8.78,12.17,47.59359,-54.27349
2023-04-04 06:14:00+00:00,252.0,7.92,253.0,9.55,12.09,47.59359,-54.27349
2023-04-04 06:24:00+00:00,255.0,7.25,255.0,8.2,12.09,47.59359,-54.27349
2023-04-04 06:34:00+00:00,253.0,6.49,245.0,7.57,12.09,47.59359,-54.27349
2023-04-04 06:44:00+00:00,258.0,6.69,256.0,7.29,12.09,47.59359,-54.27349
2023-04-04 06:54:00+00:00,254.0,7.28,256.0,8.25,12.09,47.59359,-54.27349
2023-04-04 07:04:00+00:00,259.0,6.96,261.0,8.08,12.09,47.59359,-54.27349
2023-04-04 07:14:01+00:00,246.0,6.36,243.0,7.29,12.09,47.59359,-54.27349
2023-04-04 07:24:01+00:00,250.0,7.89,251.0,8.7,12.09,47.59359,-54.27349
2023-04-04 07:34:01+00:00,247.0,8.47,247.0,10.52,12.09,47.59359,-54.27349
2023-04-04 07:44:01+00:00,255.0,8.77,258.0,9.65,12.09,47.59359,-54.27349
2023-04-04 07:54:01+00:00,255.0,8.47,255.0,9.48,12.09,47.59359,-54.27349
2023-04-04 08:04:01+00:00,243.0,7.66,242.0,9.67,12.09,47.59359,-54.27349
2023-04-04 08:14:00+00:00,243.0,6.85,243.0,8.22,12.09,47.59359,-54.27349
2023-04-04 08:24:00+00:00,234.0,6.42,233.0,7.66,12.09,47.59359,-54.27349
2023-04-04 08:34:00+00:00,237.0,8.52,239.0,9.33,12.09,47.59359,-54.27349
2023-04-04 08:44:00+00:00,241.0,7.81,241.0,8.68,12.09,47.59359,-54.27349
2023-04-04 08:54:00+00:00,240.0,8.74,240.0,9.8,12.09,47.59359,-54.27349
2023-04-04 09:04:00+00:00,242.0,8.8,241.0,9.75,12.09,47.59359,-54.27349
2023-04-04 09:14:00+00:00,244.0,7.85,246.0,9.42,12.09,47.59359,-54.27349
2023-04-04 09:24:00+00:00,234.0,9.41,237.0,10.24,12.09,47.59359,-54.27349
2023-04-04 09:34:00+00:00,236.0,8.4,232.0,10.34,12.09,47.59359,-54.27349
2023-04-04 09:44:00+00:00,240.0,8.03,242.0,9.51,12.09,47.59359,-54.27349
2023-04-04 09:54:00+00:00,230.0,6.54,233.0,7.83,12.09,47.59359,-54.27349
2023-04-04 10:04:00+00:00,227.0,6.64,227.0,7.78,12.09,47.59359,-54.27349
2023-04-04 10:14:00+00:00,226.0,6.98,226.0,8.33,12.01,47.59359,-54.27349
2023-04-04 10:24:00+00:00,226.0,6.23,228.0,7.41,12.01,47.59359,-54.27349
2023-04-04 10:34:00+00:00,226.0,6.86,230.0,8.27,12.01,47.59359,-54.27349
2023-04-04 10:44:00+00:00,226.0,7.58,230.0,9.14,12.01,47.59359,-54.27349
2023-04-04 10:54:00+00:00,216.0,7.83,214.0,8.66,12.01,47.59359,-54.27349
2023-04-04 11:04:00+00:00,217.0,7.87,218.0,8.45,12.01,47.59359,-54.27349
2023-04-04 11:14:00+00:00,212.0,10.06,212.0,11.74,12.25,47.59359,-54.27349
2023-04-04 11:24:00+00:00,214.0,8.74,214.0,9.85,12.25,47.59359,-54.27349
2023-04-04 11:34:00+00:00,212.0,9.49,208.0,10.8,12.25,47.59359,-54.27349
2023-04-04 11:44:00+00:00,214.0,10.16,214.0,11.93,12.25,47.59359,-54.27349
2023-04-04 11:54:00+00:00,213.0,9.67,215.0,10.52,12.25,47.59359,-54.27349
2023-04-04 12:04:00+00:00,207.0,8.7,205.0,9.92,12.25,47.59359,-54.27349
2023-04-04 12:14:00+00:00,219.0,6.59,224.0,8.58,13.44,47.59359,-54.27349
2023-04-04 12:24:00+00:00,208.0,7.04,206.0,9.18,13.44,47.59359,-54.27349
2023-04-04 12:34:00+00:00,206.0,6.54,210.0,7.54,13.44,47.59359,-54.27349
2023-04-04 12:44:00+00:00,229.0,7.6,234.0,9.4,13.44,47.59359,-54.27349
2023-04-04 12:54:00+00:00,230.0,8.05,236.0,9.67,13.44,47.59359,-54.27349
2023-04-04 13:04:00+00:00,227.0,7.67,229.0,9.2,13.44,47.59359,-54.27349
2023-04-04 13:14:00+00:00,231.0,8.7,232.0,10.09,13.68,47.59359,-54.27349
2023-04-04 13:24:00+00:00,217.0,8.99,220.0,11.19,13.68,47.59359,-54.27349
2023-04-04 13:34:00+00:00,214.0,9.89,212.0,11.39,13.68,47.59359,-54.27349
2023-04-04 13:44:00+00:00,212.0,11.05,206.0,12.7,13.68,47.59359,-54.27349
2023-04-04 13:54:00+00:00,210.0,10.74,209.0,12.42,13.68,47.59359,-54.27349
2023-04-04 14:04:00+00:00,211.0,11.99,205.0,14.21,13.68,47.59359,-54.27349
2023-04-04 14:14:00+00:00,214.0,10.51,205.0,12.82,13.68,47.59359,-54.27349
2023-04-04 14:24:00+00:00,212.0,10.54,216.0,11.55,13.68,47.59359,-54.27349
2023-04-04 14:34:00+00:00,211.0,10.54,208.0,12.73,13.68,47.59359,-54.27349
2023-04-04 14:44:00+00:00,213.0,10.99,215.0,12.48,13.68,47.59359,-54.27349
2023-04-04 14:54:00+00:00,211.0,10.74,213.0,11.81,13.68,47.59359,-54.27349
2023-04-04 15:04:00+00:00,215.0,10.29,216.0,11.69,13.68,47.59359,-54.27349
2023-04-04 15:14:00+00:00,214.0,10.52,216.0,11.71,13.68,47.59359,-54.27349
2023-04-04 15:24:00+00:00,212.0,10.61,210.0,12.45,13.68,47.59359,-54.27349
2023-04-04 15:34:00+00:00,214.0,9.62,210.0,10.78,13.68,47.59359,-54.27349
2023-04-04 15:44:00+00:00,217.0,8.7,222.0,9.97,13.68,47.59359,-54.27349
2023-04-04 15:54:00+00:00,220.0,8.87,219.0,10.07,13.68,47.59359,-54.27349
2023-04-04 16:04:00+00:00,221.0,6.9,221.0,7.74,13.68,47.59359,-54.27349
2023-04-04 16:14:00+00:00,228.0,8.03,224.0,9.4,13.68,47.59359,-54.27349
2023-04-04 16:24:00+00:00,225.0,8.18,224.0,10.13,13.68,47.59359,-54.27349
2023-04-04 16:34:00+00:00,229.0,5.86,224.0,6.85,13.68,47.59359,-54.27349
2023-04-04 16:44:00+00:00,221.0,6.1,224.0,6.97,13.68,47.59359,-54.27349
2023-04-04 16:54:00+00:00,208.0,8.04,205.0,9.15,13.68,47.59359,-54.27349
2023-04-04 17:04:00+00:00,201.0,7.15,206.0,8.72,13.68,47.59359,-54.27349
2023-04-04 17:14:00+00:00,205.0,7.36,209.0,8.93,13.68,47.59359,-54.27349
2023-04-04 17:24:00+00:00,199.0,8.0,207.0,9.45,13.68,47.59359,-54.27349
2023-04-04 17:34:00+00:00,209.0,9.31,210.0,10.5,13.68,47.59359,-54.27349
2023-04-04 17:44:00+00:00,208.0,9.73,210.0,10.43,13.68,47.59359,-54.27349
2023-04-04 17:54:00+00:00,211.0,9.51,207.0,10.51,13.68,47.59359,-54.27349
2023-04-04 18:04:00+00:00,208.0,7.87,207.0,9.94,13.68,47.59359,-54.27349
2023-04-04 18:14:00+00:00,210.0,8.85,208.0,10.55,13.6,47.59359,-54.27349
2023-04-04 18:24:00+00:00,209.0,8.8,207.0,10.01,13.6,47.59359,-54.27349
2023-04-04 18:34:00+00:00,210.0,9.15,206.0,10.39,13.6,47.59359,-54.27349
2023-04-04 18:44:00+00:00,215.0,8.43,213.0,9.26,13.6,47.59359,-54.27349
2023-04-04 18:54:00+00:00,221.0,7.01,216.0,8.83,13.6,47.59359,-54.27349
2023-04-04 19:04:00+00:00,216.0,8.45,220.0,9.59,13.6,47.59359,-54.27349
2023-04-04 19:14:00+00:00,219.0,6.79,218.0,7.66,13.68,47.59359,-54.27349
2023-04-04 19:24:00+00:00,213.0,8.59,213.0,9.98,13.68,47.59359,-54.27349
2023-04-04 19:34:00+00:00,213.0,8.71,213.0,9.73,13.68,47.59359,-54.27349
2023-04-04 19:44:00+00:00,211.0,9.81,208.0,10.9,13.68,47.59359,-54.27349
2023-04-04 19:54:00+00:00,210.0,9.46,209.0,10.41,13.68,47.59359,-54.27349
2023-04-04 20:04:00+00:00,212.0,9.48,213.0,10.72,13.68,47.59359,-54.27349
2023-04-04 20:14:00+00:00,210.0,9.56,207.0,10.72,13.37,47.59359,-54.27349
2023-04-04 20:24:00+00:00,210.0,9.49,209.0,10.5,13.37,47.59359,-54.27349
2023-04-04 20:34:00+00:00,212.0,9.27,209.0,10.39,13.37,47.59359,-54.27349
2023-04-04 20:44:00+00:00,211.0,8.73,212.0,9.83,13.37,47.59359,-54.27349
2023-04-04 20:54:00+00:00,212.0,8.06,211.0,9.33,13.37,47.59359,-54.27349
2023-04-04 21:04:00+00:00,211.0,8.94,208.0,10.62,13.37,47.59359,-54.27349
2023-04-04 21:14:00+00:00,211.0,9.09,211.0,10.0,13.05,47.59359,-54.27349
2023-04-04 21:24:00+00:00,205.0,8.7,209.0,9.8,13.05,47.59359,-54.27349
2023-04-04 21:34:00+00:00,207.0,8.93,208.0,10.06,13.05,47.59359,-54.27349
2023-04-04 21:44:00+00:00,205.0,10.11,204.0,11.78,13.05,47.59359,-54.27349
2023-04-04 21:54:00+00:00,216.0,8.6,214.0,9.43,13.05,47.59359,-54.27349
2023-04-04 22:04:00+00:00,217.0,7.76,214.0,9.49,13.05,47.59359,-54.27349
2023-04-04 22:14:00+00:00,218.0,9.06,220.0,10.37,12.73,47.59359,-54.27349
2023-04-04 22:24:00+00:00,225.0,7.55,219.0,8.76,12.73,47.59359,-54.27349
2023-04-04 22:34:00+00:00,224.0,6.43,220.0,7.29,12.73,47.59359,-54.27349
2023-04-04 22:44:00+00:00,217.0,8.77,213.0,10.16,12.73,47.59359,-54.27349
2023-04-04 22:54:00+00:00,219.0,8.43,216.0,9.99,12.73,47.59359,-54.27349
2023-04-04 23:04:00+00:00,217.0,8.41,215.0,9.48,12.73,47.59359,-54.27349
2023-04-04 23:14:00+00:00,216.0,6.07,218.0,6.72,12.33,47.59359,-54.27349
2023-04-04 23:24:00+00:00,196.0,5.54,214.0,6.98,12.33,47.59359,-54.27349
2023-04-04 23:34:00+00:00,183.0,3.57,224.0,4.91,12.33,47.59359,-54.27349
2023-04-04 23:44:00+00:00,193.0,4.8,217.0,6.17,12.33,47.59359,-54.27349
2023-04-04 23:54:00+00:00,212.0,5.66,215.0,6.43,12.33,47.59359,-54.27349
